BEL4MR DTMB-EBBR

Flight info

Callsign BEL4MR
Flight time 2h 21m
Altitude 34000
Route LARBI1A LARBI A411 VAXAL UA411 TUC UA725 OSMAR DCT PIRIX DCT CAR DCT GIGGI DCT UPDUT DCT CORSI DCT OMEDA DCT MERLU DCT PIGOS DCT BARSO DCT IRMAR DCT KINES DCT VANAS DCT MOBLO DCT UBIMA DCT GILIR DCT PENDU DCT IXILU DCT EPL/N0416F320 DCT ROUSY DCT DIK Y37 BATTY
Aircraft A320/M-SDE3FGHIRWY/LB1

Departure

Time 2026-05-06 13:47
Airport Monastir Habib Bourguiba International Airport (DTMB)

Arrival

Time 2026-05-06 16:09
Airport Brussels Airport (EBBR)
Time Latitude Longitude Altitude Speed Heading
2026-05-06 13:17 35.75982 10.75329 11 ft 0 kts 343°
2026-05-06 13:29 35.75982 10.75330 38 ft 0 kts 343°
2026-05-06 13:39 35.75972 10.75333 10 ft 4 kts 341°
2026-05-06 13:39 35.75947 10.75346 11 ft 4 kts 330°
2026-05-06 13:40 35.75927 10.75365 13 ft 4 kts 296°
2026-05-06 13:40 35.75923 10.75384 13 ft 0 kts 253°
2026-05-06 13:42 35.75923 10.75381 13 ft 2 kts 253°
2026-05-06 13:43 35.75911 10.75333 11 ft 10 kts 253°
2026-05-06 13:43 35.75885 10.75225 11 ft 16 kts 253°
2026-05-06 13:43 35.75852 10.75083 12 ft 16 kts 253°
2026-05-06 13:43 35.75815 10.74935 11 ft 20 kts 253°
2026-05-06 13:44 35.75800 10.74797 10 ft 16 kts 285°
2026-05-06 13:44 35.75773 10.74642 10 ft 22 kts 254°
2026-05-06 13:44 35.75727 10.74451 10 ft 23 kts 254°
2026-05-06 13:44 35.75677 10.74242 11 ft 28 kts 253°
2026-05-06 13:45 35.75631 10.74049 10 ft 22 kts 255°
2026-05-06 13:45 35.75503 10.73814 10 ft 14 kts 163°
2026-05-06 13:45 35.75495 10.73817 10 ft 2 kts 163°
2026-05-06 13:46 35.75460 10.73830 11 ft 8 kts 163°
2026-05-06 13:46 35.75428 10.73905 11 ft 13 kts 86°
2026-05-06 13:46 35.75448 10.73998 11 ft 12 kts 73°
2026-05-06 13:46 35.75487 10.74159 9 ft 41 kts 73°
2026-05-06 13:47 35.75627 10.74747 14 ft 101 kts 73°
2026-05-06 13:47 35.75873 10.75775 14 ft 148 kts 73°
2026-05-06 13:47 35.76169 10.77059 487 ft 156 kts 73°
2026-05-06 13:47 35.76213 10.78371 1107 ft 162 kts 112°
2026-05-06 13:48 35.75354 10.79313 1680 ft 181 kts 159°
2026-05-06 13:48 35.74051 10.79122 2235 ft 205 kts 204°
2026-05-06 13:48 35.73094 10.77766 2768 ft 223 kts 247°
2026-05-06 13:48 35.73088 10.75861 3278 ft 233 kts 290°
2026-05-06 13:49 35.74084 10.74246 3540 ft 245 kts 327°
2026-05-06 13:49 35.75657 10.73566 3925 ft 246 kts
2026-05-06 13:49 35.77438 10.73619 4177 ft 268 kts
2026-05-06 13:49 35.79367 10.73289 4627 ft 290 kts 348°
2026-05-06 13:50 35.81320 10.72515 5324 ft 298 kts 341°
2026-05-06 13:50 35.83254 10.71560 6081 ft 302 kts 337°
2026-05-06 13:50 35.85200 10.70537 6816 ft 306 kts 336°
2026-05-06 13:50 35.87176 10.69508 7513 ft 309 kts 336°
2026-05-06 13:51 35.89162 10.68510 8266 ft 313 kts 336°
2026-05-06 13:51 35.91196 10.67520 9014 ft 316 kts 336°
2026-05-06 13:51 35.93260 10.66537 9769 ft 319 kts 335°
2026-05-06 13:51 35.95369 10.65545 10185 ft 335 kts 335°
2026-05-06 13:52 35.97626 10.64485 10367 ft 358 kts 335°
2026-05-06 13:52 35.99996 10.63376 10852 ft 368 kts 335°
2026-05-06 13:52 36.02410 10.62251 11474 ft 373 kts 335°
2026-05-06 13:52 36.04846 10.61118 12159 ft 376 kts 334°
2026-05-06 13:53 36.07308 10.59970 12837 ft 380 kts 333°
2026-05-06 13:53 36.09798 10.58806 13489 ft 384 kts 333°
2026-05-06 13:53 36.12271 10.57646 14078 ft 387 kts 333°
2026-05-06 13:53 36.14803 10.56457 14672 ft 391 kts 333°
2026-05-06 13:54 36.17350 10.55260 15283 ft 393 kts 333°
2026-05-06 13:54 36.19908 10.54056 15916 ft 394 kts 332°
2026-05-06 13:54 36.22470 10.52849 16547 ft 395 kts 332°
2026-05-06 13:54 36.25041 10.51637 17184 ft 396 kts 332°
2026-05-06 13:55 36.27621 10.50417 17817 ft 397 kts 332°
2026-05-06 13:55 36.30208 10.49191 18413 ft 399 kts 332°
2026-05-06 13:55 36.32806 10.47964 18945 ft 400 kts 332°
2026-05-06 13:55 36.35415 10.46733 19458 ft 402 kts 333°
2026-05-06 13:56 36.38039 10.45498 19974 ft 404 kts 333°
2026-05-06 13:56 36.40678 10.44253 20487 ft 407 kts 333°
2026-05-06 13:56 36.43328 10.43000 20996 ft 409 kts 333°
2026-05-06 13:56 36.45993 10.41741 21509 ft 411 kts 334°
2026-05-06 13:57 36.48679 10.40472 22009 ft 413 kts 334°
2026-05-06 13:57 36.51376 10.39199 22512 ft 416 kts 334°
2026-05-06 13:57 36.54088 10.37918 23024 ft 418 kts 334°
2026-05-06 13:57 36.56809 10.36628 23496 ft 420 kts 334°
2026-05-06 13:58 36.59551 10.35327 23875 ft 422 kts 334°
2026-05-06 13:58 36.62301 10.34018 24239 ft 424 kts 334°
2026-05-06 13:58 36.65029 10.32719 24601 ft 426 kts 334°
2026-05-06 13:58 36.67808 10.31397 24969 ft 428 kts 335°
2026-05-06 13:59 36.70597 10.30070 25378 ft 430 kts 335°
2026-05-06 13:59 36.73400 10.28731 25734 ft 432 kts 335°
2026-05-06 13:59 36.76212 10.27385 26080 ft 434 kts 335°
2026-05-06 13:59 36.79041 10.26033 26419 ft 436 kts 335°
2026-05-06 14:00 36.81877 10.24677 26757 ft 438 kts 335°
2026-05-06 14:00 36.84734 10.23328 27074 ft 441 kts 337°
2026-05-06 14:00 36.87713 10.22305 27390 ft 446 kts 342°
2026-05-06 14:00 36.90733 10.21375 27704 ft 448 kts 342°
2026-05-06 14:01 36.93758 10.20444 28016 ft 450 kts 342°
2026-05-06 14:01 36.96807 10.19504 28313 ft 452 kts 342°
2026-05-06 14:01 36.99867 10.18557 28596 ft 454 kts 342°
2026-05-06 14:01 37.02942 10.17605 28875 ft 456 kts 342°
2026-05-06 14:02 37.06024 10.16648 29129 ft 459 kts 342°
2026-05-06 14:02 37.09132 10.15676 29369 ft 461 kts 342°
2026-05-06 14:02 37.12213 10.14711 29623 ft 463 kts 342°
2026-05-06 14:02 37.15347 10.13732 29883 ft 465 kts 342°
2026-05-06 14:03 37.18491 10.12749 30126 ft 467 kts 342°
2026-05-06 14:03 37.21654 10.11759 30341 ft 468 kts 342°
2026-05-06 14:03 37.24820 10.10767 30556 ft 469 kts 342°
2026-05-06 14:03 37.27991 10.09773 30747 ft 470 kts 342°
2026-05-06 14:04 37.31167 10.08777 31002 ft 471 kts 341°
2026-05-06 14:04 37.34351 10.07776 31239 ft 472 kts 341°
2026-05-06 14:04 37.37529 10.06774 31518 ft 471 kts 341°
2026-05-06 14:04 37.40642 10.05796 31816 ft 470 kts 341°
2026-05-06 14:05 37.43751 10.04818 32111 ft 469 kts 341°
2026-05-06 14:05 37.46910 10.03824 32409 ft 468 kts 341°
2026-05-06 14:05 37.50064 10.02830 32731 ft 467 kts 341°
2026-05-06 14:05 37.53211 10.01835 33038 ft 465 kts 341°
2026-05-06 14:06 37.56353 10.00838 33304 ft 465 kts 341°
2026-05-06 14:06 37.59487 9.99842 33589 ft 464 kts 341°
2026-05-06 14:06 37.62580 9.98857 33868 ft 464 kts 341°
2026-05-06 14:06 37.65691 9.97867 33940 ft 459 kts 341°
2026-05-06 14:07 37.71831 9.95912 33957 ft 453 kts 341°
2026-05-06 14:07 37.77940 9.93966 33973 ft 453 kts 341°
2026-05-06 14:08 37.84068 9.92013 33958 ft 454 kts 341°
2026-05-06 14:08 37.90208 9.90056 33960 ft 455 kts 341°
2026-05-06 14:09 37.96346 9.88093 33962 ft 455 kts 341°
2026-05-06 14:09 38.02480 9.86126 33959 ft 455 kts 341°
2026-05-06 14:10 38.08615 9.84154 33961 ft 455 kts 341°
2026-05-06 14:10 38.14753 9.82185 33963 ft 455 kts 340°
2026-05-06 14:11 38.20858 9.80226 33954 ft 456 kts 340°
2026-05-06 14:11 38.27013 9.78250 33963 ft 457 kts 340°
2026-05-06 14:12 38.33181 9.76265 33952 ft 458 kts 340°
2026-05-06 14:12 38.39359 9.74281 33948 ft 458 kts 340°
2026-05-06 14:13 38.45556 9.72299 33951 ft 459 kts 340°
2026-05-06 14:13 38.51751 9.70307 33969 ft 460 kts 340°
2026-05-06 14:14 38.56916 9.68636 33966 ft 461 kts 340°
2026-05-06 14:14 38.63131 9.66616 33946 ft 461 kts 340°
2026-05-06 14:15 38.69366 9.64597 33962 ft 462 kts 340°
2026-05-06 14:15 38.75600 9.62582 33958 ft 462 kts 339°
2026-05-06 14:16 38.81841 9.60557 33949 ft 463 kts 339°
2026-05-06 14:16 38.88088 9.58518 33951 ft 464 kts 339°
2026-05-06 14:17 38.94346 9.56461 33949 ft 464 kts 339°
2026-05-06 14:17 39.00593 9.54366 33973 ft 464 kts 338°
2026-05-06 14:18 39.06832 9.52262 33976 ft 463 kts 338°
2026-05-06 14:18 39.13074 9.50181 33970 ft 464 kts 339°
2026-05-06 14:19 39.19337 9.48293 33982 ft 465 kts 340°
2026-05-06 14:19 39.25663 9.46484 33978 ft 465 kts 340°
2026-05-06 14:20 39.31986 9.44648 33981 ft 466 kts 340°
2026-05-06 14:20 39.38313 9.42769 33974 ft 466 kts 340°
2026-05-06 14:21 39.44642 9.40861 33980 ft 467 kts 339°
2026-05-06 14:21 39.50974 9.38957 33963 ft 467 kts 339°
2026-05-06 14:22 39.57308 9.37067 33963 ft 467 kts 339°
2026-05-06 14:22 39.63649 9.35173 33960 ft 468 kts 339°
2026-05-06 14:23 39.69953 9.33277 33967 ft 469 kts 339°
2026-05-06 14:23 39.76332 9.31351 33954 ft 471 kts 339°
2026-05-06 14:24 39.82720 9.29423 33953 ft 472 kts 339°
2026-05-06 14:24 39.89113 9.27487 33971 ft 472 kts 339°
2026-05-06 14:25 39.95514 9.25546 33959 ft 473 kts 339°
2026-05-06 14:25 40.01936 9.23601 33952 ft 474 kts 339°
2026-05-06 14:26 40.08359 9.21650 33953 ft 474 kts 339°
2026-05-06 14:26 40.14749 9.19701 33959 ft 475 kts 339°
2026-05-06 14:27 40.21180 9.17734 33947 ft 476 kts 339°
2026-05-06 14:27 40.27649 9.15752 33949 ft 477 kts 339°
2026-05-06 14:28 40.34101 9.13753 33953 ft 477 kts 339°
2026-05-06 14:28 40.40556 9.11720 33936 ft 477 kts 339°
2026-05-06 14:29 40.47008 9.09673 33941 ft 477 kts 339°
2026-05-06 14:29 40.53466 9.07639 33969 ft 477 kts 339°
2026-05-06 14:30 40.59935 9.05605 33967 ft 477 kts 339°
2026-05-06 14:30 40.66397 9.03565 33958 ft 477 kts 339°
2026-05-06 14:31 40.72856 9.01524 33954 ft 477 kts 339°
2026-05-06 14:31 40.79309 8.99485 33982 ft 477 kts 339°
2026-05-06 14:32 40.85743 8.97436 33986 ft 474 kts 339°
2026-05-06 14:32 40.92148 8.95390 33983 ft 473 kts 340°
2026-05-06 14:33 40.98499 8.93361 33971 ft 472 kts 339°
2026-05-06 14:33 41.04865 8.91321 33978 ft 470 kts 340°
2026-05-06 14:34 41.11209 8.89291 33974 ft 468 kts 340°
2026-05-06 14:34 41.17536 8.87270 33968 ft 467 kts 340°
2026-05-06 14:35 41.23844 8.85240 33986 ft 466 kts 340°
2026-05-06 14:35 41.30058 8.82927 33973 ft 461 kts 336°
2026-05-06 14:36 41.36118 8.80176 33972 ft 459 kts 334°
2026-05-06 14:36 41.42132 8.77341 33959 ft 458 kts 334°
2026-05-06 14:37 41.48173 8.74593 33959 ft 459 kts 335°
2026-05-06 14:37 41.54228 8.71909 33953 ft 459 kts 335°
2026-05-06 14:38 41.60284 8.69206 33968 ft 459 kts 335°
2026-05-06 14:38 41.66331 8.66497 33977 ft 459 kts 334°
2026-05-06 14:39 41.72385 8.63767 33960 ft 459 kts 334°
2026-05-06 14:39 41.78433 8.61035 33948 ft 459 kts 334°
2026-05-06 14:40 41.84479 8.58293 33947 ft 459 kts 334°
2026-05-06 14:40 41.90487 8.55575 33957 ft 459 kts 334°
2026-05-06 14:41 41.96533 8.52836 33951 ft 459 kts 334°
2026-05-06 14:41 42.02584 8.50085 33948 ft 459 kts 334°
2026-05-06 14:42 42.08666 8.47314 33946 ft 459 kts 334°
2026-05-06 14:42 42.14672 8.44570 33972 ft 458 kts 334°
2026-05-06 14:43 42.20712 8.41806 33958 ft 458 kts 334°
2026-05-06 14:43 42.26743 8.39028 33950 ft 458 kts 334°
2026-05-06 14:44 42.32733 8.36165 33957 ft 453 kts 328°
2026-05-06 14:45 42.40955 8.30181 33970 ft 446 kts 323°
2026-05-06 14:45 42.46383 8.26120 33962 ft 446 kts 323°
2026-05-06 14:46 42.51810 8.22045 33954 ft 445 kts 323°
2026-05-06 14:46 42.57231 8.17964 33934 ft 445 kts 323°
2026-05-06 14:47 42.62614 8.13910 33934 ft 445 kts 323°
2026-05-06 14:47 42.68026 8.09823 33933 ft 445 kts 323°
2026-05-06 14:48 42.73452 8.05719 33932 ft 445 kts 323°
2026-05-06 14:48 42.78856 8.01609 33944 ft 445 kts 322°
2026-05-06 14:49 42.84265 7.97479 33929 ft 446 kts 322°
2026-05-06 14:49 42.89684 7.93367 33958 ft 445 kts 322°
2026-05-06 14:50 42.95091 7.89248 33936 ft 445 kts 322°
2026-05-06 14:50 43.00451 7.85144 33946 ft 444 kts 322°
2026-05-06 14:51 43.05838 7.81011 33933 ft 444 kts 321°
2026-05-06 14:51 43.11223 7.76865 33917 ft 443 kts 321°
2026-05-06 14:52 43.16594 7.72715 33909 ft 443 kts 321°
2026-05-06 14:52 43.21968 7.68562 33899 ft 443 kts 321°
2026-05-06 14:53 43.27336 7.64402 33881 ft 444 kts 321°
2026-05-06 14:53 43.32712 7.60228 33876 ft 444 kts 321°
2026-05-06 14:54 43.38091 7.56043 33885 ft 444 kts 321°
2026-05-06 14:54 43.43466 7.51853 33881 ft 445 kts 321°
2026-05-06 14:55 43.48847 7.47634 33867 ft 445 kts 321°
2026-05-06 14:55 43.54234 7.43403 33858 ft 446 kts 321°
2026-05-06 14:56 43.59631 7.39174 33862 ft 446 kts 321°
2026-05-06 14:56 43.64911 7.34894 33841 ft 443 kts 318°
2026-05-06 14:57 43.70067 7.30176 33827 ft 440 kts 316°
2026-05-06 14:57 43.75108 7.25388 33828 ft 441 kts 316°
2026-05-06 14:58 43.80210 7.20637 33844 ft 442 kts 316°
2026-05-06 14:58 43.85334 7.15943 33843 ft 442 kts 317°
2026-05-06 14:59 43.90464 7.11237 33841 ft 442 kts 317°
2026-05-06 14:59 43.95571 7.06519 33851 ft 441 kts 316°
2026-05-06 15:00 44.00665 7.01791 33841 ft 440 kts 316°
2026-05-06 15:00 44.05755 6.97066 33851 ft 440 kts 317°
2026-05-06 15:01 44.10807 6.92379 33840 ft 442 kts 319°
2026-05-06 15:01 44.13565 6.90357 33837 ft 454 kts 329°
2026-05-06 15:01 44.16589 6.88946 33839 ft 465 kts 339°
2026-05-06 15:02 44.23085 6.87729 33860 ft 474 kts 347°
2026-05-06 15:02 44.28542 6.86921 33861 ft 474 kts 347°
2026-05-06 15:03 44.35115 6.85926 33862 ft 475 kts 347°
2026-05-06 15:03 44.42755 6.84744 33871 ft 474 kts 347°
2026-05-06 15:04 44.48244 6.83905 33929 ft 475 kts 347°
2026-05-06 15:04 44.54773 6.82932 33919 ft 474 kts 347°
2026-05-06 15:05 44.61315 6.81943 33901 ft 472 kts 347°
2026-05-06 15:05 44.67853 6.80940 33894 ft 471 kts 347°
2026-05-06 15:06 44.74370 6.79935 33886 ft 470 kts 347°
2026-05-06 15:06 44.80869 6.78936 33888 ft 471 kts 349°
2026-05-06 15:07 44.87438 6.78343 33900 ft 473 kts 352°
2026-05-06 15:07 44.94012 6.78058 33886 ft 472 kts 353°
2026-05-06 15:08 45.00580 6.77742 33903 ft 472 kts 352°
2026-05-06 15:08 45.07100 6.77317 33900 ft 472 kts 352°
2026-05-06 15:09 45.13652 6.76853 33915 ft 472 kts 352°
2026-05-06 15:09 45.20213 6.76398 33940 ft 471 kts 353°
2026-05-06 15:10 45.26763 6.75966 33930 ft 471 kts 352°
2026-05-06 15:10 45.33311 6.75529 33917 ft 471 kts 352°
2026-05-06 15:11 45.39861 6.75094 33928 ft 471 kts 352°
2026-05-06 15:11 45.46417 6.74659 33927 ft 472 kts 352°
2026-05-06 15:12 45.52980 6.74214 33923 ft 472 kts 352°
2026-05-06 15:12 45.59532 6.73769 33937 ft 472 kts 352°
2026-05-06 15:13 45.66096 6.73311 33937 ft 472 kts 352°
2026-05-06 15:13 45.72613 6.72861 33933 ft 473 kts 353°
2026-05-06 15:14 45.79180 6.72416 33953 ft 473 kts 353°
2026-05-06 15:14 45.85752 6.71963 33946 ft 472 kts 353°
2026-05-06 15:15 45.92309 6.71514 33958 ft 472 kts 353°
2026-05-06 15:15 45.98867 6.71062 33966 ft 471 kts 353°
2026-05-06 15:16 46.05420 6.70616 33955 ft 470 kts 353°
2026-05-06 15:16 46.11936 6.69982 33948 ft 466 kts 346°
2026-05-06 15:17 46.18104 6.67472 33934 ft 458 kts 336°
2026-05-06 15:17 46.24143 6.64531 33923 ft 459 kts 336°
2026-05-06 15:18 46.30206 6.61590 33921 ft 459 kts 336°
2026-05-06 15:18 46.36263 6.58637 33917 ft 459 kts 336°
2026-05-06 15:19 46.42314 6.55673 33918 ft 459 kts 336°
2026-05-06 15:19 46.48336 6.52726 33914 ft 460 kts 336°
2026-05-06 15:20 46.54395 6.49756 33911 ft 460 kts 336°
2026-05-06 15:20 46.60457 6.46771 33941 ft 460 kts 337°
2026-05-06 15:21 46.66508 6.43783 33940 ft 458 kts 338°
2026-05-06 15:21 46.72526 6.40800 33939 ft 456 kts 338°
2026-05-06 15:22 46.78537 6.37818 33935 ft 455 kts 338°
2026-05-06 15:22 46.84525 6.34845 33937 ft 454 kts 338°
2026-05-06 15:23 46.90505 6.31862 33931 ft 454 kts 338°
2026-05-06 15:23 46.96474 6.28872 33928 ft 453 kts 338°
2026-05-06 15:24 47.02405 6.25895 33929 ft 453 kts 338°
2026-05-06 15:24 47.08255 6.22553 33912 ft 449 kts 330°
2026-05-06 15:25 47.13865 6.18503 33928 ft 449 kts 331°
2026-05-06 15:25 47.19479 6.14454 33922 ft 449 kts 331°
2026-05-06 15:26 47.25084 6.10392 33916 ft 449 kts 331°
2026-05-06 15:26 47.30695 6.06326 33919 ft 449 kts 332°
2026-05-06 15:27 47.36680 6.03636 33905 ft 453 kts 351°
2026-05-06 15:27 47.42993 6.03439 33883 ft 454 kts 359°
2026-05-06 15:28 47.49315 6.03595 33872 ft 454 kts 360°
2026-05-06 15:28 47.55640 6.03746 33869 ft 455 kts 360°
2026-05-06 15:29 47.61971 6.03888 33865 ft 455 kts 359°
2026-05-06 15:29 47.68269 6.04021 33870 ft 456 kts 360°
2026-05-06 15:30 47.74612 6.04156 33872 ft 456 kts 360°
2026-05-06 15:30 47.80951 6.04339 33874 ft 455 kts
2026-05-06 15:31 47.87286 6.04564 33883 ft 455 kts
2026-05-06 15:31 47.93617 6.04777 33879 ft 454 kts
2026-05-06 15:32 48.03107 6.05056 33879 ft 454 kts
2026-05-06 15:32 48.09420 6.05259 33878 ft 454 kts
2026-05-06 15:33 48.15728 6.05452 33876 ft 453 kts
2026-05-06 15:33 48.22021 6.05653 33643 ft 450 kts
2026-05-06 15:34 48.25150 6.05755 33040 ft 447 kts
2026-05-06 15:34 48.28186 6.05854 32791 ft 437 kts
2026-05-06 15:34 48.31202 6.05950 32404 ft 430 kts
2026-05-06 15:34 48.34176 6.06054 31983 ft 425 kts
2026-05-06 15:35 48.37128 6.06183 31827 ft 422 kts
2026-05-06 15:35 48.40067 6.06324 31866 ft 423 kts
2026-05-06 15:35 48.45957 6.06615 31864 ft 424 kts
2026-05-06 15:36 48.51849 6.06906 31865 ft 424 kts
2026-05-06 15:36 48.57740 6.07185 31877 ft 424 kts
2026-05-06 15:37 48.63630 6.07457 31869 ft 423 kts
2026-05-06 15:37 48.69523 6.07722 31837 ft 423 kts
2026-05-06 15:38 48.75408 6.08004 31838 ft 423 kts
2026-05-06 15:38 48.81251 6.08300 31840 ft 423 kts
2026-05-06 15:39 48.87130 6.08585 31861 ft 423 kts
2026-05-06 15:39 48.93012 6.08871 31860 ft 423 kts
2026-05-06 15:40 48.98915 6.09142 31864 ft 424 kts
2026-05-06 15:40 49.04817 6.09425 31862 ft 424 kts
2026-05-06 15:41 49.10726 6.09723 31860 ft 425 kts
2026-05-06 15:41 49.16633 6.10009 31857 ft 425 kts
2026-05-06 15:42 49.22550 6.10284 31848 ft 426 kts
2026-05-06 15:42 49.28474 6.10563 31847 ft 426 kts
2026-05-06 15:43 49.34396 6.10859 31845 ft 425 kts
2026-05-06 15:43 49.40313 6.11152 31840 ft 426 kts
2026-05-06 15:44 49.46252 6.11443 31844 ft 427 kts
2026-05-06 15:44 49.52147 6.11719 31847 ft 426 kts
2026-05-06 15:45 49.58081 6.11947 31835 ft 427 kts
2026-05-06 15:45 49.64011 6.12159 31844 ft 426 kts
2026-05-06 15:46 49.69949 6.12378 31846 ft 426 kts
2026-05-06 15:46 49.75874 6.12608 31661 ft 425 kts
2026-05-06 15:47 49.78814 6.12724 31242 ft 422 kts
2026-05-06 15:47 49.81743 6.12839 30829 ft 418 kts
2026-05-06 15:47 49.84648 6.12919 30248 ft 415 kts 357°
2026-05-06 15:47 49.87487 6.12484 29584 ft 407 kts 348°
2026-05-06 15:48 49.90228 6.11533 28870 ft 402 kts 345°
2026-05-06 15:48 49.92931 6.10573 28141 ft 395 kts 345°
2026-05-06 15:48 49.95560 6.09658 27394 ft 390 kts 345°
2026-05-06 15:48 49.98137 6.08535 26655 ft 381 kts 334°
2026-05-06 15:49 50.00459 6.06665 25920 ft 372 kts 323°
2026-05-06 15:49 50.02594 6.04436 25188 ft 367 kts 323°
2026-05-06 15:49 50.04706 6.02242 24586 ft 364 kts 323°
2026-05-06 15:49 50.06821 6.00042 24110 ft 365 kts 323°
2026-05-06 15:50 50.08930 5.97844 23638 ft 364 kts 323°
2026-05-06 15:50 50.11032 5.95644 23118 ft 363 kts 322°
2026-05-06 15:50 50.13125 5.93442 22572 ft 363 kts 323°
2026-05-06 15:50 50.15216 5.91237 22030 ft 362 kts 323°
2026-05-06 15:51 50.17302 5.89033 21495 ft 362 kts 323°
2026-05-06 15:51 50.19385 5.86829 20996 ft 361 kts 323°
2026-05-06 15:51 50.21462 5.84631 20538 ft 359 kts 323°
2026-05-06 15:51 50.23532 5.82444 20077 ft 358 kts 323°
2026-05-06 15:52 50.25589 5.80272 19634 ft 356 kts 323°
2026-05-06 15:52 50.27630 5.78116 19194 ft 354 kts 323°
2026-05-06 15:52 50.29670 5.75961 18774 ft 352 kts 324°
2026-05-06 15:52 50.31690 5.73820 18389 ft 349 kts 324°
2026-05-06 15:53 50.33018 5.72409 18179 ft 346 kts 324°
2026-05-06 15:53 50.34997 5.70303 17813 ft 342 kts 324°
2026-05-06 15:53 50.36953 5.68217 17429 ft 339 kts 323°
2026-05-06 15:53 50.38896 5.66142 17061 ft 336 kts 324°
2026-05-06 15:54 50.40817 5.64089 16688 ft 332 kts 324°
2026-05-06 15:54 50.42720 5.62055 16289 ft 330 kts 324°
2026-05-06 15:54 50.44615 5.60030 15904 ft 328 kts 324°
2026-05-06 15:54 50.46495 5.58021 15524 ft 326 kts 324°
2026-05-06 15:55 50.48362 5.56024 15148 ft 323 kts 325°
2026-05-06 15:55 50.50214 5.54043 14773 ft 321 kts 325°
2026-05-06 15:55 50.52032 5.52095 14417 ft 319 kts 326°
2026-05-06 15:55 50.53855 5.50139 14066 ft 316 kts 326°
2026-05-06 15:56 50.55639 5.48217 13940 ft 306 kts 326°
2026-05-06 15:56 50.57354 5.46369 13549 ft 296 kts 326°
2026-05-06 15:56 50.59048 5.44546 12940 ft 294 kts 326°
2026-05-06 15:56 50.60733 5.42733 12414 ft 291 kts 326°
2026-05-06 15:57 50.62396 5.40939 11901 ft 292 kts 326°
2026-05-06 15:57 50.64080 5.39121 11396 ft 295 kts 326°
2026-05-06 15:57 50.65785 5.37283 10890 ft 299 kts 326°
2026-05-06 15:57 50.67512 5.35418 10394 ft 303 kts 326°
2026-05-06 15:58 50.69254 5.33534 9908 ft 304 kts 326°
2026-05-06 15:58 50.71002 5.31640 9417 ft 304 kts 326°
2026-05-06 15:58 50.72727 5.29765 9021 ft 299 kts 326°
2026-05-06 15:58 50.74425 5.27916 8622 ft 292 kts 326°
2026-05-06 15:59 50.76075 5.26120 8226 ft 283 kts 326°
2026-05-06 15:59 50.77669 5.24385 7846 ft 275 kts 326°
2026-05-06 15:59 50.79229 5.22690 7464 ft 269 kts 326°
2026-05-06 15:59 50.80764 5.21020 7071 ft 266 kts 326°
2026-05-06 16:00 50.82281 5.19364 6639 ft 264 kts 326°
2026-05-06 16:00 50.83789 5.17716 6283 ft 262 kts 326°
2026-05-06 16:00 50.85277 5.16091 5952 ft 258 kts 326°
2026-05-06 16:00 50.86742 5.14475 5891 ft 256 kts 322°
2026-05-06 16:01 50.87923 5.12425 5890 ft 256 kts 300°
2026-05-06 16:01 50.88658 5.09827 5882 ft 262 kts 293°
2026-05-06 16:01 50.89324 5.07150 5843 ft 260 kts 293°
2026-05-06 16:01 50.89965 5.04496 5521 ft 255 kts 292°
2026-05-06 16:02 50.90576 5.01937 5392 ft 242 kts 292°
2026-05-06 16:02 50.91155 4.99506 5251 ft 230 kts 293°
2026-05-06 16:02 50.91714 4.97158 4964 ft 226 kts 293°
2026-05-06 16:02 50.92270 4.94830 4589 ft 225 kts 293°
2026-05-06 16:03 50.92828 4.92505 4207 ft 225 kts 293°
2026-05-06 16:03 50.93383 4.90190 3832 ft 225 kts 293°
2026-05-06 16:03 50.93937 4.87874 3465 ft 224 kts 293°
2026-05-06 16:03 50.94489 4.85569 3175 ft 221 kts 294°
2026-05-06 16:04 50.95023 4.83328 3064 ft 212 kts 294°
2026-05-06 16:04 50.95532 4.81186 2999 ft 202 kts 293°
2026-05-06 16:04 50.95801 4.79058 2999 ft 195 kts 271°
2026-05-06 16:04 50.95543 4.76980 3042 ft 195 kts 252°
2026-05-06 16:05 50.95080 4.74966 3007 ft 192 kts 252°
2026-05-06 16:05 50.94621 4.72957 2876 ft 194 kts 253°
2026-05-06 16:05 50.94172 4.70991 2660 ft 191 kts 253°
2026-05-06 16:05 50.93721 4.69020 2401 ft 188 kts 254°
2026-05-06 16:06 50.93285 4.67113 2159 ft 179 kts 253°
2026-05-06 16:06 50.92871 4.65307 1923 ft 172 kts 254°
2026-05-06 16:06 50.92467 4.63543 1711 ft 168 kts 255°
2026-05-06 16:06 50.92073 4.61824 1474 ft 165 kts 253°
2026-05-06 16:07 50.91685 4.60134 1233 ft 159 kts 254°
2026-05-06 16:07 50.91320 4.58546 1036 ft 148 kts 255°
2026-05-06 16:07 50.90977 4.57049 824 ft 143 kts 257°
2026-05-06 16:07 50.90630 4.55538 638 ft 148 kts 253°
2026-05-06 16:08 50.90278 4.54005 417 ft 148 kts 254°
2026-05-06 16:08 50.89921 4.52460 222 ft 149 kts 254°
2026-05-06 16:08 50.89593 4.51000 174 ft 125 kts 249°
2026-05-06 16:08 50.89350 4.49965 177 ft 75 kts 250°
2026-05-06 16:09 50.89225 4.49430 176 ft 35 kts 249°
2026-05-06 16:09 50.89159 4.49139 176 ft 13 kts 250°
2026-05-06 16:09 50.89174 4.49042 176 ft 9 kts 335°
2026-05-06 16:09 50.89253 4.49061 171 ft 13 kts 15°
2026-05-06 16:10 50.89281 4.49074 169 ft 0 kts 15°
2026-05-06 16:10 50.89291 4.49078 168 ft 4 kts 14°
2026-05-06 16:10 50.89335 4.49095 167 ft 9 kts 14°
2026-05-06 16:10 50.89348 4.49100 166 ft 0 kts 14°
2026-05-06 16:11 50.89352 4.49095 166 ft 2 kts 332°
2026-05-06 16:11 50.89389 4.49021 163 ft 14 kts 325°
2026-05-06 16:11 50.89484 4.49033 159 ft 13 kts 13°
2026-05-06 16:11 50.89573 4.49071 155 ft 14 kts 17°
2026-05-06 16:12 50.89685 4.49160 150 ft 19 kts 14°
2026-05-06 16:12 50.89819 4.49215 142 ft 21 kts 14°
2026-05-06 16:12 50.89945 4.49252 135 ft 17 kts 339°
2026-05-06 16:12 50.89941 4.49105 136 ft 15 kts 249°
2026-05-06 16:13 50.89901 4.48958 136 ft 14 kts 245°
2026-05-06 16:13 50.89863 4.48827 136 ft 13 kts 245°
2026-05-06 16:13 50.89829 4.48709 136 ft 8 kts 246°
2026-05-06 16:13 50.89859 4.48646 134 ft 9 kts 334°
2026-05-06 16:14 50.89903 4.48613 130 ft 2 kts 335°
2026-05-06 16:14 50.89907 4.48611 127 ft 0 kts 335°